Terminal Aerodrome Forecast
Issued by NWS

Home | Current Version | Previous Version | Graphics & Text | Print | Product List | Glossary On
Versions: 1 2 3 4 5 6 7 8 9 10 11 12 13 14
000
FTUS45 KGGW 201226 AAA
TAFGDV
TAF AMD
KGDV 201226Z 2012/2112 04004KT P6SM SCT020 OVC060
      TEMPO 2012/2014 BKN020
     FM201400 VRB05KT P6SM OVC040
     FM201800 33009KT P6SM BKN060
     FM201900 33010KT P6SM SCT100
     FM210400 02009KT P6SM BKN140
     FM210700 08009KT P6SM BKN080=

USA.gov is the U.S. government's official web portal to all federal, state and local government web resources and services.